This demonstration page uses our WeatherBlox Daily Observations layout. Learn more.

Hourly Observations for May 27, 2015

Temp ( °F °C ) Dew Point ( °F °C ) Humidity (%) Winds ( mph kmh ) Pressure ( in mb ) Visibility ( mi km ) Precip ( " mm )
12:15 am 00:15 Clear 55 13 48 9 77 77 Calm 30 1016 10 16.09344 0 0
12:35 am 00:35 Clear 54 12 48 9 82 82 Calm 30.03 1017 10 16.09344 0 0
12:55 am 00:55 Clear 54 12 48 9 82 82 SW 3 6 30.03 1017 10 16.09344 0 0
1:15 am 01:15 Clear 54 12 48 9 82 82 Calm 30.03 1017 10 16.09344 0 0
1:35 am 01:35 Clear 55 13 48 9 77 77 SW 3 6 30 1016 10 16.09344 0 0
1:55 am 01:55 Clear 54 12 46 8 77 77 Calm 30.03 1017 10 16.09344 0 0
2:15 am 02:15 Clear 54 12 46 8 77 77 SSW 3 6 30.03 1017 10 16.09344 0 0
2:35 am 02:35 Clear 50 10 46 8 88 88 Calm 30.03 1017 10 16.09344 0 0
2:55 am 02:55 Clear 52 11 46 8 82 82 SSW 3 6 30.03 1017 10 16.09344 0 0
3:15 am 03:15 Clear 50 10 46 8 88 88 SW 5 7 30.06 1018 10 16.09344 0 0
3:35 am 03:35 Clear 54 12 48 9 82 82 SW 5 7 30.06 1018 10 16.09344 0 0
3:55 am 03:55 Clear 54 12 48 9 82 82 SSW 5 7 30.06 1018 10 16.09344 0 0
4:15 am 04:15 Clear 55 13 48 9 77 77 SSW 6 9 30.06 1018 10 16.09344 0 0
4:35 am 04:35 Clear 54 12 46 8 77 77 SW 5 7 30.06 1018 10 16.09344 0 0
4:55 am 04:55 Clear 54 12 46 8 77 77 Calm 30.06 1018 10 16.09344 0 0
5:15 am 05:15 Clear 50 10 46 8 88 88 Calm 30.06 1018 10 16.09344 0 0
5:35 am 05:35 Clear 46 8 43 6 87 87 Calm 30.09 1019 10 16.09344 0 0
5:55 am 05:55 Clear 48 9 45 7 87 87 Calm 30.09 1019 10 16.09344 0 0
6:15 am 06:15 Sunny 48 9 45 7 87 87 Calm 30.09 1019 10 16.09344 0 0
6:35 am 06:35 Sunny 48 9 45 7 87 87 Calm 30.09 1019 10 16.09344 0 0
6:55 am 06:55 Sunny 50 10 46 8 88 88 SSW 10 17 30.12 1020 10 16.09344 0 0
7:15 am 07:15 Sunny 55 13 48 9 77 77 SSW 7 11 30.09 1019 10 16.09344 0 0
7:35 am 07:35 Sunny 55 13 50 10 82 82 SW 5 7 30.09 1019 10 16.09344 0 0
7:55 am 07:55 Sunny 59 15 50 10 72 72 Calm 30.06 1018 10 16.09344 0 0
8:15 am 08:15 Sunny 61 16 52 11 72 72 SSW 3 6 30.06 1018 10 16.09344 0 0
8:35 am 08:35 Sunny 64 18 52 11 64 64 SSW 7 11 30.03 1017 10 16.09344 0 0
8:55 am 08:55 Sunny 66 19 50 10 56 56 SE 3 6 30.03 1017 10 16.09344 0 0
9:15 am 09:15 Sunny 66 19 50 10 56 56 SSE 5 7 30.03 1017 10 16.09344 0 0
9:35 am 09:35 Sunny 68 20 48 9 49 49 SSE 7 11 30.03 1017 10 16.09344 0 0
9:55 am 09:55 Sunny 70 21 46 8 43 43 SSE 8 13 30 1016 10 16.09344 0 0
10:15 am 10:15 Partly Cloudy 70 21 46 8 43 43 S 12 19 30 1016 10 16.09344 0 0
10:35 am 10:35 Sunny 72 22 46 8 41 41 SSE 9 15 30 1016 10 16.09344 0 0
10:55 am 10:55 Sunny 72 22 45 7 38 38 SSE 12 19 30 1016 10 16.09344 0 0
11:15 am 11:15 Sunny 73 23 43 6 33 33 SE 7 11 30 1016 10 16.09344 0 0
11:35 am 11:35 Sunny 72 22 43 6 36 36 SSE 10 17 30 1016 10 16.09344 0 0
11:55 am 11:55 Sunny 73 23 41 5 31 31 SSE 9 15 30 1016 10 16.09344 0 0
12:15 pm 12:15 Sunny 75 24 43 6 31 31 SE 12 19 29.97 1015 10 16.09344 0 0
12:35 pm 12:35 Sunny 75 24 46 8 36 36 S 9 15 29.97 1015 10 16.09344 0 0
12:55 pm 12:55 Partly Cloudy 75 24 46 8 36 36 S 12 19 29.97 1015 10 16.09344 0 0
1:15 pm 13:15 Mostly Cloudy 75 24 46 8 36 36 S 13 20 29.97 1015 10 16.09344 0 0
1:35 pm 13:35 Mostly Cloudy 75 24 48 9 39 39 SSE 10 17 29.97 1015 10 16.09344 0 0
1:55 pm 13:55 Mostly Cloudy 73 23 50 10 44 44 SSE 7 11 30 1016 10 16.09344 0 0
2:15 pm 14:15 Mostly Cloudy 73 23 52 11 47 47 SSE 15 24 30 1016 10 16.09344 0 0
2:35 pm 14:35 Mostly Cloudy 73 23 52 11 47 47 SSE 12 19 30 1016 10 16.09344 0 0
2:55 pm 14:55 Partly Cloudy 75 24 52 11 44 44 SSE 12 19 29.97 1015 10 16.09344 0 0
3:15 pm 15:15 Partly Cloudy 73 23 52 11 47 47 S 14 22 30 1016 10 16.09344 0 0
3:35 pm 15:35 Partly Cloudy with Light Rain 70 21 55 13 60 60 SSW 10 17 30 1016 10 16.09344 0 0
3:55 pm 15:55 Partly Cloudy with Light Rain 72 22 55 13 57 57 SSE 9 15 29.97 1015 10 16.09344 0 0
4:15 pm 16:15 Sunny 73 23 54 12 50 50 SSE 14 22 29.97 1015 10 16.09344 0 0
4:35 pm 16:35 Sunny 73 23 54 12 50 50 SSE 12 19 29.94 1014 10 16.09344 0 0
4:55 pm 16:55 Sunny 77 25 54 12 44 44 SE 16 26 29.91 1013 10 16.09344 0 0
5:15 pm 17:15 Sunny 77 25 52 11 42 42 SE 17 28 29.91 1013 10 16.09344 0 0
5:35 pm 17:35 Partly Cloudy 75 24 52 11 44 44 SSE 12 19 29.91 1013 10 16.09344 0 0
5:55 pm 17:55 Mostly Cloudy 75 24 54 12 47 47 SSE 15 24 29.91 1013 10 16.09344 0 0
6:15 pm 18:15 Partly Cloudy 75 24 54 12 47 47 S 16 26 29.91 1013 10 16.09344 0 0
6:35 pm 18:35 Mostly Cloudy 73 23 54 12 50 50 SSE 13 20 29.94 1014 10 16.09344 0 0
6:55 pm 18:55 Mostly Cloudy 73 23 55 13 53 53 SSE 15 24 29.94 1014 10 16.09344 0 0
7:15 pm 19:15 Partly Cloudy 72 22 54 12 53 53 S 13 20 29.94 1014 10 16.09344 0 0
7:35 pm 19:35 Partly Cloudy 72 22 55 13 57 57 SSE 12 19 29.94 1014 10 16.09344 0 0
7:55 pm 19:55 Sunny 70 21 55 13 60 60 SSE 9 15 29.94 1014 10 16.09344 0 0
8:15 pm 20:15 Sunny 70 21 55 13 60 60 SSE 9 15 29.94 1014 10 16.09344 0 0
8:35 pm 20:35 Sunny 68 20 55 13 64 64 SSE 6 9 30 1016 10 16.09344 0 0
8:55 pm 20:55 Partly Cloudy 68 20 57 14 69 69 SSE 6 9 30 1016 10 16.09344 0 0
9:15 pm 21:15 Mostly Cloudy 66 19 57 14 73 73 SSE 8 13 30 1016 10 16.09344 0 0
9:35 pm 21:35 Mostly Cloudy with Light Rain 68 20 59 15 73 73 S 8 13 30.03 1017 10 16.09344 0 0
9:55 pm 21:55 Partly Cloudy with Light Rain 66 19 59 15 78 78 S 8 13 30 1016 10 16.09344 0 0
10:15 pm 22:15 Partly Cloudy with Light Rain 66 19 59 15 78 78 S 12 19 30 1016 10 16.09344 0 0
10:35 pm 22:35 Clear with Light Rain 66 19 59 15 78 78 S 13 20 30 1016 10 16.09344 0 0
10:55 pm 22:55 Clear 66 19 59 15 78 78 S 14 22 29.97 1015 10 16.09344 0 0
11:15 pm 23:15 Clear 66 19 59 15 78 78 SSE 12 19 29.97 1015 10 16.09344 0 0
11:35 pm 23:35 Clear 64 18 59 15 83 83 SSE 14 22 29.94 1014 10 16.09344 0 0
11:55 pm 23:55 Clear 64 18 59 15 83 83 SSE 10 17 29.94 1014 10 16.09344 0 0

Powered by AerisWeather